Spokane, WA
on Monday, January 21, 2013

Monday
Previous Day Next Day
Daily Summary
 ActualAverageRecord
Temperature
Mean Temperature °F 30°F  
Max Temperature 26°F 35°F 49°F (1909)
Min Temperature 4°F 26°F -13°F (1962)
Degree Days
Heating Degree Days 50 35  
Month to date heating degree days 891 759  
Since 1 July heating degree days 3316 3593  
Cooling Degree Days 0 0  
Month to date cooling degree days 0 0  
Year to date cooling degree days 0 0  
Moisture
Dew Point 12°F   
Average Humidity 86    
Maximum Humidity 92    
Minimum Humidity 80    
Precipitation
Precipitation T in 0.06 in 1.26 in (1954)
Month to date precipitation 1.05 1.29  
Year to date precipitation 1.05 1.29  
Snow
Snow 0.00 in 0.30 in 12.70 in (1954)
Month to date snowfall 11.8 8.6  
Since 1 July snowfall 35.8 30.7  
Snow Depth 1.00 in   
Wind
Wind Speed 1 mph   
Max Wind Speed 7 mph   
Max Gust Speed 8 mph   
Visibility 1 miles   
Events Fog   

Key: T is trace of precipitation, MM is missing value
Source: NWS Daily Summary
Time(PST)TemperatureDew PointHumidity Pressure Visibility Wind DirectionWind SpeedGust SpeedPrecipitationEvents Conditions
12:53 AM 12.9°F 10.0°F 88% 30.44 in 0.2 miles Calm Calm - N/A Fog Light Freezing Fog
1:53 AM 15.1°F 12.0°F 88% 30.44 in 0.1 miles Calm Calm - N/A Fog Light Freezing Fog
2:53 AM 18.0°F 14.0°F 84% 30.43 in 0.1 miles Calm Calm - N/A Fog Light Freezing Fog
3:53 AM 17.1°F 12.9°F 84% 30.42 in 0.1 miles Calm Calm - N/A Fog Light Freezing Fog
4:53 AM 18.0°F 12.9°F 81% 30.42 in 0.1 miles Calm Calm - N/A Fog Light Freezing Fog
5:53 AM 16.0°F 12.9°F 88% 30.42 in 0.1 miles Calm Calm - N/A Fog Light Freezing Fog
6:53 AM 17.1°F 12.0°F 81% 30.43 in 0.1 miles Calm Calm - N/A Fog Light Freezing Fog
7:53 AM 18.0°F 14.0°F 84% 30.43 in 0.1 miles Calm Calm - N/A Fog Light Freezing Fog
8:53 AM 17.1°F 12.9°F 84% 30.44 in 0.1 miles Calm Calm - N/A Fog Light Freezing Fog
9:28 AM 19.4°F 15.8°F 86% 30.31 in 0.1 miles Calm Calm - 0.01 in Fog Light Freezing Fog
9:53 AM 19.9°F 15.1°F 81% 30.43 in 0.1 miles Calm Calm - 0.01 in Fog Light Freezing Fog
10:53 AM 19.9°F 16.0°F 85% 30.43 in 0.1 miles Calm Calm - N/A Fog Light Freezing Fog
11:53 AM 19.0°F 16.0°F 88% 30.42 in 0.1 miles Calm Calm - N/A Fog Light Freezing Fog
12:53 PM 19.9°F 18.0°F 92% 30.39 in 0.1 miles Calm Calm - N/A Fog Light Freezing Fog
1:45 PM 24.8°F 19.4°F 80% 30.26 in 1.0 miles Calm Calm - N/A   Mostly Cloudy
1:53 PM 24.1°F 19.9°F 84% 30.37 in 1.0 miles Calm Calm - N/A   Mostly Cloudy
2:18 PM 24.8°F 19.4°F 80% 30.25 in 2.0 miles Calm Calm - N/A   Scattered Clouds
2:53 PM 24.1°F 19.9°F 84% 30.34 in 2.0 miles Calm Calm - N/A   Scattered Clouds
3:53 PM 21.9°F 18.0°F 85% 30.34 in 2.0 miles North 4.6 mph - N/A   Scattered Clouds
4:53 PM 18.0°F 15.1°F 88% 30.35 in 2.0 miles SSW 3.5 mph - N/A   Scattered Clouds
5:15 PM 17.6°F 12.2°F 79% 30.23 in 3.0 miles Calm Calm - N/A   Scattered Clouds
5:53 PM 12.9°F 9.0°F 84% 30.36 in 3.0 miles SW 3.5 mph - N/A   Scattered Clouds
6:53 PM 10.9°F 7.0°F 84% 30.36 in 3.0 miles WSW 3.5 mph - N/A   Scattered Clouds
7:53 PM 10.9°F 8.1°F 88% 30.38 in 3.0 miles WSW 4.6 mph - N/A   Scattered Clouds
8:53 PM 8.1°F 3.9°F 83% 30.38 in 3.0 miles SSW 5.8 mph - N/A   Scattered Clouds
9:53 PM 7.0°F 1.9°F 80% 30.37 in 3.0 miles Calm Calm - N/A   Scattered Clouds
10:53 PM 6.1°F 1.9°F 83% 30.39 in 3.0 miles Calm Calm - N/A   Scattered Clouds
11:53 PM 6.1°F 1.9°F 83% 30.39 in 1.0 miles Calm Calm - N/A   Overcast
Moon Phase
Jan. 21 Jan. 26 Feb. 03 Feb. 10 Feb. 17
Sunrise:07:28 AM (PST) Moon Rise:12:16 PM (PST)
Sunset:04:35 PM (PST) Moon Set:03:02 AM (PST)

Copyright © 2014 The Weather Underground, Inc.